Precipitable_Water
0.67 0.63 0.61 0.58 0.53 0.45 0.41 0.38 0.36 0.36 0.37 0.34 0.33 0.34 0.35 0.37 0.38 0.38 0.37 0.36 0.33 0.32 0.32 0.34 0.32 0.31 0.30 0.29 0.28 0.26 0.24 0.23 0.20 0.20 0.22 0.23 0.23 0.26 0.27 0.27 0.27 0.28 0.29
0.64 0.63 0.57 0.53 0.47 0.42 0.40 0.39 0.38 0.38 0.36 0.34 0.35 0.36 0.36 0.36 0.34 0.31 0.31 0.31 0.30 0.32 0.33 0.31 0.30 0.30 0.29 0.26 0.25 0.24 0.23 0.23 0.22 0.19 0.21 0.23 0.25 0.27 0.26 0.26 0.27 0.29 0.29
0.62 0.58 0.52 0.50 0.45 0.43 0.41 0.41 0.40 0.36 0.34 0.35 0.36 0.36 0.35 0.37 0.36 0.35 0.31 0.32 0.35 0.35 0.33 0.32 0.31 0.28 0.23 0.22 0.23 0.22 0.21 0.21 0.22 0.21 0.21 0.24 0.24 0.25 0.25 0.25 0.26 0.28 0.29
0.56 0.52 0.48 0.47 0.46 0.43 0.43 0.42 0.38 0.35 0.33 0.35 0.36 0.35 0.33 0.34 0.30 0.30 0.31 0.32 0.32 0.34 0.35 0.30 0.25 0.21 0.20 0.20 0.19 0.19 0.20 0.20 0.20 0.20 0.20 0.21 0.23 0.24 0.25 0.24 0.24 0.29 0.29
0.55 0.48 0.46 0.47 0.47 0.44 0.43 0.41 0.37 0.34 0.33 0.35 0.35 0.36 0.39 0.37 0.33 0.29 0.31 0.32 0.30 0.28 0.26 0.23 0.21 0.20 0.19 0.19 0.18 0.19 0.20 0.20 0.19 0.19 0.20 0.20 0.21 0.23 0.23 0.24 0.25 0.25 0.26
0.52 0.49 0.48 0.48 0.46 0.42 0.40 0.39 0.35 0.33 0.32 0.34 0.34 0.34 0.37 0.37 0.34 0.32 0.24 0.24 0.23 0.23 0.22 0.21 0.20 0.20 0.20 0.20 0.21 0.22 0.21 0.19 0.19 0.20 0.19 0.18 0.20 0.22 0.23 0.25 0.24 0.22 0.20
0.52 0.47 0.47 0.49 0.44 0.40 0.38 0.34 0.32 0.32 0.34 0.34 0.32 0.31 0.35 0.35 0.35 0.26 0.23 0.23 0.24 0.23 0.21 0.20 0.19 0.20 0.21 0.21 0.21 0.19 0.20 0.21 0.23 0.23 0.21 0.21 0.24 0.25 0.26 0.25 0.24 0.23 0.23
0.46 0.50 0.51 0.48 0.40 0.37 0.33 0.31 0.31 0.34 0.34 0.32 0.31 0.32 0.32 0.33 0.31 0.26 0.24 0.25 0.25 0.23 0.21 0.20 0.20 0.20 0.20 0.20 0.17 0.18 0.20 0.21 0.22 0.22 0.22 0.23 0.25 0.25 0.24 0.23 0.23 0.22 0.22
0.56 0.48 0.48 0.40 0.34 0.31 0.29 0.29 0.32 0.33 0.33 0.32 0.32 0.30 0.29 0.31 0.29 0.26 0.24 0.24 0.23 0.22 0.22 0.22 0.19 0.17 0.19 0.17 0.18 0.19 0.19 0.20 0.22 0.22 0.21 0.25 0.26 0.26 0.25 0.24 0.20 0.19 0.19
0.48 0.47 0.44 0.37 0.32 0.28 0.29 0.28 0.29 0.32 0.33 0.33 0.32 0.30 0.29 0.29 0.28 0.26 0.23 0.23 0.21 0.21 0.22 0.21 0.19 0.18 0.18 0.16 0.16 0.17 0.18 0.20 0.18 0.18 0.21 0.25 0.26 0.26 0.26 0.26 0.23 0.21 0.21
0.48 0.48 0.41 0.33 0.31 0.31 0.28 0.29 0.29 0.30 0.32 0.34 0.33 0.31 0.30 0.29 0.29 0.25 0.23 0.22 0.21 0.20 0.19 0.19 0.21 0.20 0.17 0.16 0.17 0.17 0.19 0.19 0.19 0.21 0.24 0.25 0.25 0.27 0.27 0.26 0.27 0.26 0.23
0.50 0.43 0.35 0.33 0.32 0.30 0.30 0.30 0.31 0.32 0.32 0.32 0.32 0.32 0.32 0.30 0.28 0.25 0.22 0.21 0.20 0.19 0.19 0.20 0.20 0.19 0.17 0.17 0.18 0.18 0.18 0.21 0.22 0.19 0.23 0.24 0.23 0.25 0.26 0.26 0.26 0.27 0.28
0.41 0.35 0.33 0.33 0.32 0.31 0.29 0.29 0.29 0.31 0.30 0.30 0.31 0.30 0.30 0.31 0.33 0.28 0.24 0.22 0.21 0.21 0.20 0.20 0.19 0.19 0.18 0.19 0.19 0.19 0.19 0.21 0.21 0.18 0.21 0.23 0.24 0.26 0.28 0.28 0.32 0.31 0.27
0.35 0.33 0.32 0.31 0.30 0.28 0.28 0.29 0.29 0.29 0.30 0.30 0.30 0.28 0.28 0.26 0.26 0.29 0.26 0.24 0.24 0.23 0.22 0.22 0.20 0.20 0.20 0.20 0.21 0.20 0.20 0.20 0.20 0.19 0.19 0.24 0.26 0.26 0.26 0.27 0.26 0.29 0.28
0.33 0.32 0.32 0.30 0.29 0.29 0.28 0.28 0.30 0.31 0.30 0.31 0.30 0.30 0.27 0.24 0.25 0.24 0.26 0.25 0.25 0.24 0.20 0.19 0.19 0.20 0.18 0.19 0.19 0.19 0.19 0.19 0.18 0.19 0.20 0.20 0.24 0.24 0.24 0.26 0.27 0.26 0.26
0.31 0.31 0.31 0.30 0.30 0.29 0.27 0.27 0.31 0.31 0.31 0.31 0.31 0.31 0.30 0.28 0.26 0.23 0.22 0.22 0.22 0.22 0.19 0.18 0.18 0.20 0.19 0.18 0.18 0.18 0.18 0.18 0.18 0.18 0.20 0.20 0.19 0.23 0.23 0.25 0.26 0.25 0.25
0.29 0.28 0.29 0.29 0.29 0.29 0.29 0.28 0.26 0.31 0.33 0.31 0.31 0.30 0.29 0.29 0.29 0.26 0.23 0.23 0.23 0.23 0.18 0.17 0.18 0.19 0.19 0.19 0.18 0.18 0.17 0.17 0.17 0.18 0.18 0.19 0.20 0.17 0.22 0.24 0.24 0.25 0.24
0.29 0.28 0.29 0.29 0.30 0.31 0.31 0.30 0.29 0.29 0.29 0.31 0.34 0.33 0.31 0.30 0.29 0.27 0.25 0.24 0.22 0.22 0.20 0.18 0.18 0.20 0.19 0.19 0.19 0.18 0.18 0.18 0.17 0.16 0.17 0.18 0.19 0.20 0.17 0.18 0.23 0.23 0.23
0.29 0.29 0.30 0.31 0.32 0.31 0.31 0.31 0.30 0.29 0.29 0.30 0.31 0.33 0.35 0.30 0.31 0.29 0.27 0.24 0.21 0.21 0.21 0.22 0.22 0.21 0.21 0.20 0.20 0.21 0.20 0.18 0.16 0.16 0.17 0.17 0.18 0.19 0.20 0.18 0.16 0.20 0.22
0.30 0.31 0.31 0.31 0.31 0.30 0.29 0.29 0.30 0.31 0.31 0.31 0.31 0.30 0.32 0.32 0.30 0.30 0.28 0.26 0.25 0.23 0.23 0.22 0.22 0.22 0.22 0.21 0.21 0.21 0.20 0.20 0.18 0.17 0.16 0.17 0.17 0.18 0.18 0.19 0.20 0.15 0.16
0.32 0.34 0.34 0.33 0.32 0.31 0.31 0.30 0.30 0.31 0.31 0.31 0.32 0.36 0.36 0.33 0.30 0.31 0.32 0.31 0.28 0.27 0.27 0.26 0.24 0.24 0.25 0.25 0.23 0.21 0.20 0.20 0.19 0.16 0.16 0.17 0.17 0.16 0.18 0.18 0.18 0.19 0.17
0.34 0.34 0.34 0.34 0.35 0.34 0.32 0.32 0.30 0.30 0.30 0.30 0.30 0.33 0.37 0.36 0.34 0.32 0.31 0.33 0.34 0.34 0.33 0.31 0.29 0.28 0.27 0.26 0.25 0.24 0.22 0.20 0.20 0.17 0.16 0.17 0.16 0.17 0.18 0.18 0.18 0.17 0.18
0.33 0.33 0.33 0.32 0.33 0.33 0.31 0.31 0.30 0.30 0.29 0.30 0.31 0.32 0.34 0.36 0.35 0.35 0.34 0.34 0.35 0.35 0.36 0.35 0.33 0.30 0.31 0.30 0.29 0.26 0.24 0.22 0.22 0.20 0.17 0.16 0.16 0.16 0.17 0.17 0.17 0.17 0.17
0.32 0.32 0.31 0.32 0.31 0.30 0.31 0.30 0.30 0.31 0.30 0.31 0.32 0.32 0.34 0.35 0.35 0.35 0.36 0.36 0.35 0.35 0.36 0.36 0.36 0.35 0.34 0.32 0.31 0.28 0.26 0.26 0.25 0.22 0.18 0.16 0.16 0.16 0.16 0.17 0.17 0.17 0.16
0.31 0.30 0.32 0.33 0.32 0.30 0.33 0.30 0.30 0.32 0.31 0.32 0.32 0.33 0.34 0.35 0.35 0.35 0.35 0.34 0.33 0.32 0.32 0.33 0.33 0.34 0.34 0.34 0.33 0.31 0.29 0.26 0.25 0.24 0.21 0.17 0.16 0.16 0.15 0.16 0.16 0.16 0.17
0.26 0.28 0.29 0.30 0.30 0.32 0.31 0.28 0.29 0.31 0.31 0.32 0.31 0.32 0.32 0.31 0.32 0.31 0.30 0.27 0.25 0.24 0.25 0.28 0.30 0.31 0.32 0.34 0.34 0.33 0.31 0.29 0.25 0.24 0.23 0.19 0.17 0.17 0.17 0.16 0.16 0.15 0.16
Wind_Speed
28 29 32 32 32 35 36 37 38 39 39 39 40 41 42 44 45 46 47 44 40 39 37 36 35 34 33 31 32 32 33 33 36 37 38 38 38 36 35 34 33 32 32
30 32 32 32 34 36 37 38 39 39 39 40 41 42 44 45 45 45 43 40 39 37 35 34 34 33 32 31 31 31 32 34 37 40 38 37 35 34 33 33 31 31 31
32 32 32 33 35 36 37 38 39 39 40 41 42 43 45 44 44 43 41 39 36 35 33 32 32 32 31 30 30 32 34 35 36 37 36 35 33 32 31 30 30 30 31
32 32 33 34 35 36 37 38 39 40 41 41 42 44 44 43 43 41 39 37 35 34 32 32 32 30 29 30 32 33 33 34 34 34 33 32 31 30 29 29 28 28 27
32 32 33 34 35 37 37 38 39 40 41 42 43 43 42 43 42 40 39 36 33 32 31 30 29 29 30 29 30 31 32 32 32 31 30 30 29 28 28 28 28 27 27
32 33 34 35 36 37 38 38 39 40 42 42 43 43 42 42 39 39 36 33 32 31 30 29 27 27 27 30 30 30 31 31 30 29 28 28 28 28 27 27 26 25 23
32 34 34 35 36 38 38 39 40 41 42 42 42 42 41 41 38 37 34 31 31 30 28 26 26 26 27 28 29 31 30 30 28 28 27 27 28 27 27 26 25 24 22
33 34 34 36 38 38 39 40 41 41 42 41 41 41 41 39 36 35 31 31 29 28 26 25 25 25 26 28 29 29 29 27 26 24 26 27 28 27 27 26 26 24 23
34 33 35 37 39 39 39 40 41 41 41 41 40 40 40 38 35 31 30 29 28 26 24 24 24 25 25 27 28 28 27 26 24 25 26 27 26 24 23 22 22 20 19
33 35 38 39 39 39 40 40 40 40 42 40 39 39 38 36 33 29 29 28 26 24 23 23 23 24 25 26 26 26 26 24 24 24 24 23 21 20 20 19 18 17 17
33 36 37 38 38 39 40 40 39 40 40 39 38 38 37 33 30 27 28 26 23 23 22 23 23 24 24 25 24 24 24 25 22 21 22 19 18 18 17 16 16 16 15
35 37 37 38 38 39 39 39 40 40 37 37 36 36 34 31 27 26 26 23 22 22 22 22 23 23 24 23 23 23 24 22 19 20 19 17 17 16 16 15 15 14 14
36 36 36 36 38 38 38 39 38 37 36 36 34 33 31 28 25 24 23 21 21 21 22 22 22 22 22 21 20 21 21 20 18 18 17 16 16 15 15 15 15 11 10
35 35 35 37 37 37 37 37 36 36 35 34 33 30 28 25 24 23 21 20 20 20 21 20 21 20 20 20 20 19 19 19 18 17 17 16 15 15 13 13 12 11 8
34 35 36 37 37 36 36 36 36 36 34 34 31 27 25 24 23 22 21 20 20 20 20 20 19 19 19 19 18 18 18 18 17 16 16 15 15 14 13 11 10 9 11
35 35 36 36 37 37 37 37 36 35 34 32 29 26 24 23 23 22 21 20 20 20 19 19 18 18 18 18 18 18 17 17 17 16 15 14 14 14 13 11 9 7 7
34 35 36 36 36 37 36 37 36 35 32 30 28 26 25 24 23 22 21 20 19 19 18 18 17 17 17 17 17 17 17 17 17 16 15 14 13 13 12 11 9 7 6
35 36 36 37 37 37 37 37 36 34 31 29 27 26 25 24 23 22 21 19 19 19 19 18 17 16 16 16 16 16 17 18 17 16 15 14 13 12 12 11 9 8 7
36 37 37 38 39 39 38 37 35 33 31 29 27 25 24 23 22 21 20 20 20 19 19 18 18 17 16 16 16 16 17 17 17 16 15 14 12 12 11 10 9 8 8
38 39 39 39 38 38 36 35 34 32 30 29 27 26 24 21 21 21 21 21 21 21 20 20 19 19 18 17 17 16 16 16 17 16 15 14 12 12 11 10 9 8 7
40 39 39 39 39 38 36 35 34 33 32 30 29 28 27 26 24 23 23 22 22 22 22 22 21 20 19 19 18 17 16 16 16 16 15 14 13 12 11 10 9 9 8
41 41 41 41 41 39 39 37 36 34 33 31 30 29 28 28 27 26 25 24 24 24 23 23 23 22 21 20 19 18 18 17 16 15 14 14 13 12 11 11 10 9 9
43 44 44 43 42 41 39 37 35 33 32 31 30 29 28 27 27 27 26 26 26 26 26 25 25 25 23 22 21 20 19 18 16 15 14 14 13 12 12 11 11 10 10
46 46 45 42 40 37 35 34 34 33 32 30 29 28 27 26 26 27 27 26 26 26 26 26 26 26 26 25 24 22 21 19 18 16 15 14 13 12 12 11 11 11 11
49 47 45 41 40 39 36 35 34 31 30 28 27 26 25 25 25 26 26 26 26 26 25 25 25 26 27 27 26 24 22 20 19 17 16 15 13 13 12 12 11 11 11
48 45 43 41 39 35 32 33 32 29 27 25 25 25 25 26 26 27 27 27 26 26 26 26 27 27 27 27 27 27 25 23 21 19 18 16 15 14 13 12 12 12 12
Wind_Direction
292 296 301 302 304 308 312 314 315 316 316 316 316 316 316 315 314 313 313 310 307 306 305 305 305 304 302 299 297 295 294 294 295 298 299 299 298 296 293 290 287 284 280
292 297 299 301 304 307 310 313 314 315 316 316 316 317 317 316 316 315 314 312 307 306 304 304 305 304 302 301 299 297 296 296 298 300 300 299 297 296 294 291 288 284 280
292 295 297 300 304 307 309 312 314 315 316 316 317 318 318 318 317 316 313 312 309 307 305 305 305 304 303 302 301 300 300 299 299 300 300 299 298 297 295 292 289 286 282
290 293 296 300 303 306 309 311 313 315 316 317 317 318 318 318 319 316 314 311 308 306 303 304 304 304 304 304 303 303 302 302 301 301 301 300 299 298 296 295 292 288 285
289 292 296 299 303 306 308 310 312 314 316 317 317 318 318 318 319 317 315 311 309 307 305 305 304 304 305 305 306 306 306 305 304 303 302 301 300 300 298 296 295 292 286
288 291 296 299 302 305 307 309 311 314 316 317 318 319 318 318 317 318 316 312 310 308 307 306 305 306 307 308 308 307 307 306 305 304 303 301 302 302 300 297 295 293 287
287 292 296 299 302 305 306 308 310 313 315 317 318 319 319 319 316 316 314 312 311 310 307 306 307 308 310 311 312 311 310 308 301 301 302 303 303 303 302 299 295 292 283
289 293 294 299 302 304 306 308 309 312 314 315 317 318 318 318 316 315 312 312 311 310 308 307 308 310 313 315 315 314 314 312 309 305 304 304 304 302 300 295 293 290 283
292 291 296 300 302 304 306 307 309 310 312 313 314 317 317 316 315 312 312 312 311 309 308 308 309 311 314 317 319 318 317 314 312 310 309 308 305 303 305 302 297 289 282
290 293 298 300 302 303 306 308 308 309 309 310 310 315 316 315 313 310 311 312 310 309 309 309 310 312 315 318 319 321 320 318 316 315 316 314 312 310 308 305 303 292 285
295 297 299 300 300 302 304 307 307 309 310 310 310 312 313 313 310 308 310 311 309 309 310 311 312 314 316 318 320 321 323 321 318 319 321 319 319 318 318 313 306 295 284
297 300 300 302 301 303 304 306 308 311 310 311 311 312 312 310 308 308 309 307 308 309 310 312 313 315 316 318 320 323 326 325 322 324 325 324 325 325 325 324 321 304 285
296 300 300 301 304 304 305 308 311 311 310 310 310 312 311 310 307 306 307 306 306 309 311 312 314 316 317 319 320 323 327 329 326 327 328 327 327 327 326 326 332 310 307
298 301 301 302 305 305 309 311 311 311 310 310 310 309 308 309 310 306 306 305 306 309 312 313 316 317 318 318 320 324 326 329 327 325 329 327 327 329 328 333 335 344 309
298 300 302 304 305 307 309 310 311 311 310 309 307 305 306 305 308 307 302 303 305 309 312 314 316 319 321 322 322 324 327 329 329 327 327 329 328 329 328 330 335 340 345
299 301 303 304 306 308 310 311 310 309 309 306 303 301 301 302 304 305 301 299 300 304 308 311 314 319 322 323 324 326 327 329 331 327 325 327 330 329 327 325 324 327 343
300 303 305 306 307 307 308 309 310 310 308 305 301 296 294 296 299 300 299 296 296 300 302 305 310 316 320 324 326 328 330 329 327 327 325 323 326 329 329 326 320 310 306
300 302 305 306 307 308 308 308 307 306 305 305 300 295 292 292 294 295 295 294 295 294 296 299 302 308 315 321 325 329 332 332 329 327 323 322 321 322 327 327 320 313 296
301 303 305 307 307 307 306 306 305 304 302 300 299 296 291 290 290 292 290 290 292 292 293 294 295 299 304 309 317 324 330 334 333 329 325 319 317 317 317 322 323 313 300
301 302 304 306 306 306 306 305 303 300 299 296 293 291 289 288 287 289 288 288 288 287 288 290 291 293 295 299 304 311 319 328 334 334 330 324 316 311 309 311 313 316 309
301 302 303 304 303 304 303 302 302 299 297 294 291 286 281 281 284 285 286 287 287 285 285 285 287 288 289 291 294 297 304 314 324 329 331 329 323 312 306 302 301 302 303
300 301 302 302 301 300 300 298 297 295 294 292 291 286 280 276 277 281 283 285 286 285 284 282 282 283 284 286 288 290 292 298 308 317 322 326 326 319 308 300 294 292 290
300 300 300 299 298 298 297 296 295 292 291 290 289 287 281 276 275 276 280 283 284 285 283 281 279 279 280 280 280 283 285 287 292 302 309 315 321 322 316 305 295 287 283
300 298 297 296 297 296 295 296 296 291 289 288 287 285 282 278 275 275 279 282 284 285 284 282 279 276 275 275 274 275 278 280 282 288 294 301 308 314 317 313 303 290 281
300 298 294 291 293 292 290 294 295 291 289 287 285 285 283 280 279 278 280 281 283 284 285 284 282 279 274 271 269 267 269 271 273 276 282 287 294 301 306 310 309 301 287
298 296 293 290 288 287 287 294 292 287 287 285 285 285 284 283 282 281 281 281 282 283 283 283 283 281 277 272 267 262 262 262 265 268 272 276 281 287 293 298 301 303 297